Location: St. Louis
(38.6270°N, 90.1994°W)
Time: 10:46:05
(UTC-06:00)

A-11 Canister half - Pass Details

Date: 06 December 2021
Orbit: 1524 x 1684 km, 47.3° (Epoch: 25 January)

Event Time Altitude Azimuth Distance (km) Brightness Sun altitude
Rises 04:24:15 0° 287° (WNW) 4,937 - -30.6°
Reaches altitude 10° 04:27:34 10° 292° (WNW) 3,942 - -29.9°
Exits shadow 04:34:08 41° 319° (NW) 2,274 9.5 -28.7°
Maximum altitude 04:37:28 54° 9° (N) 1,943 9.4 -28.0°
Drops below altitude 10° 04:47:05 10° 86° (E) 3,841 12.0 -26.1°
Sets 04:50:17 0° 91° (E) 4,804 12.9 -25.5°
